Find Starlink 36849

NORAD ID: 68304 Int'l Des: 2026-057 Owner: SPXS Country: US Constellation: starlink operational
LEOCIRCULARRETROGRADE

現在のビュー

3D地球を読み込み中...

About Starlink 36849

Starlink 36849 (NORAD 68304) is a starlink constellation satellite (v2 mini) launched Mar 20, 2026 by SPXS of US. It operates in LEO, CIRCULAR, RETROGRADE orbit with a mass of 575.00 kg.

Starlink 36849について

説明を読み込み中...

次回通過

Passes for default location (London). Set your location on the main map for personalized predictions.

高度履歴

Loading altitude history...

軌道要素

1 68304U 26057L 26170.91668981 -.00010725 00000-0 -33014-3 0 9996
2 68304 97.2851 297.5735 0001340 81.4320 201.5878 15.33466291 5892
Epoch: Jun 19, 2026 • Age: 8 hours

現在のステータス

高度 494.8 km
速度 7.62 km/s
衛星直下点 -82.44°S, 16°E
打ち上げ日 Mar 20, 2026
運用期間 0.2 years
タイプ internet

技術仕様

分類 Payload
質量 575.00 kg
乾燥質量 530.00 kg
総質量 575.00 kg
長さ 0.30 m
直径 4.10 m
スパン 29.00 m
形状 Box + pan
製造者 SPXS
バスタイプ Starlink V2MO
フェーズステータス In Orbit
所有者/国 SPXS/US

Most Searched